(111) Ate
ephemeris date magn radius delta ra dec elong phase
Today17 Jun 202613.22.401 AU3.372 AU04h37m+25°10'14.4°6.0°
Opposition31 Jan 202710.82.334 AU1.348 AU08h53m+16°41'179.2°0.3°
(111) Ate - 2026-06-17
astro.vanbuitenen.nl


 
-1 year
-1 month
-1 day
Now
+1 day
+1 month
+1 year

The interactive orbit chart above shows the body's path through the solar system and its position at the given date. Green and blue lines are shown perpendicular to the ecliptic plane: Green if the path is above the ecliptic plane, blue if it is below. (Left-click and drag to rotate the view; Right-click and drag to move the view; Use scroll wheel to zoom in our out.)

The orbital elements of Ate are:

            e (Eccentricity)                : 0.1035803
            a (Semimajor axis)              : 2.5926626
            i (Inclination)                 : 4.93243
            Ω (Longitude of ascending node) : 305.66148
            ω (Argument of perihelion)      : 168.46344
            M (Mean anomaly)                : 317.88075
            Epoch                           : 2026 Jun 09

            L (Longitude of perihelion)     : 294.16650
            B (Latitude of perihelion)      : 0.98528
            P (Orbital period in years)     : 4.17            
        

The light curve chart below shows the estimated development of the minor planet's magnitude.


The all-sky chart below shows the path of the minor planet over the same period as the light curve. The current position is marked yellow.





The following chart shows the path of the minor planet in the next few days. The field of view is optimized for (~10x50) binoculars and finderscopes.




Ephemerides:
Date       Time       RA (2000)    DEC (2000)    delta   radius  elong  phase   PA    magn
2026-06-17 00:00 UT   04 37 41.4   +25 10 04     3.372    2.401   14.4    6.0   274   13.2 
2026-06-17 06:43 UT   04 38 16.3   +25 11 05     3.371    2.400   14.5    6.1   274   13.2 
2026-06-18 00:00 UT   04 39 46.3   +25 13 39     3.368    2.400   14.8    6.2   274   13.2 
2026-06-19 00:00 UT   04 41 51.3   +25 17 08     3.364    2.399   15.3    6.4   274   13.2 
2026-06-20 00:00 UT   04 43 56.4   +25 20 31     3.360    2.398   15.8    6.6   273   13.2 
2026-06-21 00:00 UT   04 46 01.6   +25 23 48     3.356    2.397   16.2    6.8   273   13.2 
2026-06-22 00:00 UT   04 48 06.8   +25 26 59     3.352    2.397   16.7    7.0   273   13.2 
2026-06-23 00:00 UT   04 50 12.2   +25 30 04     3.348    2.396   17.2    7.2   273   13.2 
2026-06-24 00:00 UT   04 52 17.5   +25 33 03     3.343    2.395   17.7    7.4   273   13.3 
2026-06-25 00:00 UT   04 54 23.0   +25 35 57     3.339    2.394   18.1    7.6   273   13.3 
2026-06-26 00:00 UT   04 56 28.5   +25 38 44     3.335    2.393   18.6    7.8   273   13.3 
2026-06-27 00:00 UT   04 58 34.0   +25 41 25     3.330    2.393   19.1    8.0   273   13.3 
2026-06-28 00:00 UT   05 00 39.6   +25 44 01     3.325    2.392   19.5    8.2   273   13.3 
2026-06-29 00:00 UT   05 02 45.2   +25 46 30     3.321    2.391   20.0    8.4   273   13.3 
2026-06-30 00:00 UT   05 04 50.8   +25 48 53     3.316    2.390   20.5    8.6   273   13.3 
2026-07-01 00:00 UT   05 06 56.5   +25 51 10     3.311    2.389   21.0    8.8   273   13.3 
2026-07-02 00:00 UT   05 09 02.2   +25 53 21     3.306    2.389   21.4    9.0   273   13.3 
2026-07-03 00:00 UT   05 11 08.0   +25 55 26     3.301    2.388   21.9    9.1   273   13.3 
2026-07-04 00:00 UT   05 13 13.7   +25 57 25     3.295    2.387   22.4    9.3   273   13.3 


    Terminology:
            
    delta:  distance between minor planet and earth in AU
    radius: distance between minor planet and sun in AU
    magn:   magnitude (brightness) estimate    
    ra:     right ascension in hours (24h = 360deg)
    dec:    declination in degrees
    elong:  elongation in degrees (angle sun-earth-minor planet)    
    phase:  phase angle in degrees (angle sun-minor planet-earth)        
    AU:     Astronomical Unit (mean distance between earth and sun: 149597870.7 km
    

Orbital elements provided by the MPC (Minor Planet Center).
Calculations by a modified version of AAPlus, a C# implementation of the AA+ project by PJ Naughter from the algorithms presented in the book "Astronomical Algorithms" by Jean Meeus.
NGC2000 dso catalog and star labels from VizieR as provided by the Strasbourg astronomical Data Center.
Tycho2 catalog from the ESO archive.